Location: Gairloch Mountain Observatory
(46.1383°N, 60.9640°W)
Time: 08:49:03
(UTC-03:00)

CENTAUR R/B - Visible Passes

Search period start: 30 September 2014 00:00
Search period end: 10 October 2014 00:00
Orbit: 894 x 1295 km, 63.5° (Epoch: 27 September)

Date Brightness Start Highest point End Pass type
(mag) Time Alt. Az. Time Alt. Az. Time Alt. Az.
30 Sep 4.0 02:37:59 35° NNE 02:37:59 35° NNE 02:42:01 10° NE visible
30 Sep 4.2 04:25:10 21° NW 04:27:18 24° NNW 04:33:00 10° NNE visible
30 Sep 4.7 06:15:35 10° NW 06:20:43 20° N 06:26:09 10° NE visible
01 Oct 4.6 01:51:22 23° NE 01:51:22 23° NE 01:53:50 10° NE visible
01 Oct 3.9 03:38:33 30° NNW 03:38:33 30° NNW 03:44:40 10° NNE visible
01 Oct 4.7 05:26:47 10° NW 05:31:42 20° N 05:36:54 10° NE visible
02 Oct 5.1 01:04:45 14° NE 01:04:45 14° NE 01:05:33 10° NE visible
02 Oct 4.0 02:51:56 32° N 02:51:56 32° N 02:56:27 10° NNE visible
02 Oct 4.5 04:39:06 14° NW 04:42:41 20° N 04:47:58 10° NE visible
02 Oct 4.7 06:30:25 10° NNW 06:36:08 24° NNE 06:42:11 10° ENE visible
03 Oct 4.5 02:05:18 26° NNE 02:05:18 26° NNE 02:08:17 10° NE visible
03 Oct 4.3 03:52:29 22° NNW 03:53:44 23° NNW 03:59:20 10° NNE visible
03 Oct 4.7 05:41:57 10° NW 05:47:11 21° N 05:52:43 10° ENE visible
04 Oct 4.9 01:18:39 17° NE 01:18:39 17° NE 01:20:07 10° NE visible
04 Oct 4.2 03:05:50 27° NNW 03:05:50 27° NNW 03:10:57 10° NNE visible
04 Oct 4.7 04:53:14 10° NW 04:58:10 20° N 05:03:24 10° NE visible
05 Oct 4.5 02:19:12 26° N 02:19:12 26° N 02:22:43 10° NNE visible
05 Oct 4.6 04:06:23 16° NW 04:09:09 20° N 04:14:23 10° NE visible
05 Oct 4.7 05:56:43 10° NNW 06:02:34 25° NNE 06:08:46 10° ENE visible
06 Oct 4.8 01:32:33 19° NNE 01:32:33 19° NNE 01:34:33 10° NE visible
06 Oct 4.4 03:19:44 22° NNW 03:20:11 22° NNW 03:25:41 10° NE visible
06 Oct 4.8 05:08:19 10° NW 05:13:39 22° NNE 05:19:18 10° ENE visible
07 Oct 5.2 00:45:55 12° NE 00:45:55 12° NE 00:46:23 10° NE visible
07 Oct 4.5 02:33:06 24° N 02:33:06 24° N 02:37:15 10° NNE visible
07 Oct 4.8 04:20:17 12° NW 04:24:39 20° N 04:29:56 10° NE visible
07 Oct 4.4 06:11:13 10° NNW 06:17:46 33° NNE 06:24:44 10° E visible
08 Oct 4.8 01:46:27 20° NNE 01:46:27 20° NNE 01:48:59 10° NNE visible
08 Oct 4.6 03:33:38 18° NNW 03:35:37 20° N 03:40:50 10° NE visible
08 Oct 4.6 05:23:01 10° NNW 05:29:00 26° NNE 05:35:21 10° ENE visible
09 Oct 5.1 00:59:50 14° NNE 00:59:50 14° NNE 01:00:49 10° NNE visible
09 Oct 4.6 02:47:01 21° N 02:47:01 21° N 02:52:03 10° NE visible
09 Oct 4.8 04:34:39 10° NW 04:40:06 22° NNE 04:45:53 10° ENE visible
09 Oct 4.0 06:25:34 10° NNW 06:32:44 47° NE 06:40:21 10° ESE visible
